49P/Arend-Rigaux (1998)

Japanese version
Home page
Updated on May 5, 2012

---------------------------------------------------------------------

* Profile

* Orbital Elements

Epoch 1998 July 6.0 TT = JDT 2451000.5
T 1998 July 12.59514 TT                                 MPC
q   1.3685915            (2000.0)            P               Q
n   0.14904303     Peri.  330.56216     -0.06109214     -0.96177700
a   3.5231268      Node   121.72870     +0.96612245     -0.12416288
e   0.6115407      Incl.   18.29053     +0.25074918     +0.24406675
P   6.61
From 2684 observations 1963 Sept. 12-2012 May 2, mean residual 0".6.
     Nongravitational parameters A1 = +0.02, A2 = -0.0001.

* Finding Charts

* Magnitudes Graph

        H = 14.0  G = 0.15                       [   ,-98]  (             - 1998 Apr.  5)
        m1 = 8.0 + 5 log d + 30.0 log r(t - 10)  [-98,136]  (1998 Apr.  5 - 1998 Nov. 25)
        H = 14.0  G = 0.15                       [136,   ]  (1998 Nov. 25 -             )

---------------------------------------------------------------------

The orbital elements are published on M.P.E.C. 2012-J16.
The charts are made with StellaNavigator Ver.2.0 for Windows (AstroArts / ASCII).
The magnitudes graphs are made with Comet for Windows.

---------------------------------------------------------------------

Copyright(C) Seiichi Yoshida (comet@aerith.net). All rights reserved.